NOAA 16 DEB, 42374

Orbit data source: Space-Track

NOAA 16 DEB, 42374 is space debris in SSO originally from a launch on Thu, 21 Sep 2000 UTC launched from the Air Force Western Test Range (AFWTR). Debris objects in space refer to the collection of defunct objects orbiting the Earth. Examples of debris include non-operational satellites, rocket bodies, and fragments generated from explosions, collisions, or faulty payload assembly.

Loading next visibility...
NOAA 16 DEB details
Identifier
42374, 2000-055RS
Orbit
SSO
Last TLE update1 week ago
Origin
Flag of USNOAA (US)
ManufacturerUnknown
MissionSpacecraft
Bus & MotorUnknown
MassUnknown
Launch date (UTC)
2000-09-21 (24 years ago)
Launch vehicleUnknown
Launch site
Air Force Western Test Range (AFWTR)
Object type
Payload
Rocket body
Debris
Shape & HBRUnknown
Radar Cross SectionSmall (<0.1 m²)

Expand to show TLE details & history

TLE from 1 week ago
0 NOAA 16 DEB
1 42374U 00055RS  24354.58694289  .00022683  00000-0  68490-2 0  9999
2 42374  98.8644  98.5412 0014493 251.0160 108.9458 14.42342573449261
Epoch: 2024-12-19T14:05Z
Definitive object data (Epoch: 2024-12-19T14:05:11.865Z)
Latitude-0.00005°
Longitude158.5771°
Altitude757.078 km
Speed7.474 km/s
True Right ascension06h 34m 09s
True Declination0° 00' 00"
Sunlit
Object was in full shadow at TLE epoch
Visualization TLE readout
Latitude14.58732°
Longitude163.39952°
Altitude760.329 km
Speed7.471 km/s
Apparent Right ascension03h 54m 12s
Apparent Declination-22° 47' 55"
Sunlit
Object is in full shadow
Visualization observer readout
Local Sidereal Time10:19:04
Azimuth255.727° W
Elevation-18.979°
Doppler factor1
Orbital elements
Apogee altitude758.233 km
Perigee altitude737.578 km
Semi-major axis7,126.042 km
Eccentricity0.0014493
Inclination98.8644°
RAAN98.5412°
Arg. of periapsis251.016°
True anomaly109.10279°
Mean anomaly108.9458°
Eccentric anomaly109.0243°
Mean motion3.60803 °/min
BSTAR0.006849
Orbital period99.78 mins
Loading maneuver chart data...
Loading historical data...
Loading historical data...
Loading historical data...
Loading historical data...
Loading historical data...
Loading historical data...
Loading historical data...

NOAA 16 DEB Visibility forecast

Observer location: undefined°, undefined

Span
Click to sort rows by Start time (UTC) header in descending order
Start Az.
Max El. time (UTC)
Max El. Az.
Max El.
End time (UTC)
End Az.
9 mins2024-12-26 19:47:48.097Z23.709° NE2024-12-26 19:51:48.097Z86.652° E40.099°2024-12-26 19:56:48.097Z180.52° SSW
4 mins2024-12-26 21:28:48.097Z317.458° NNW2024-12-26 21:29:48.097Z303.521° NW15.904°2024-12-26 21:32:48.097Z263.78° W
8 mins2024-12-27 06:59:48.097Z157.294° SSE2024-12-27 07:03:48.097Z41.28° NE43.762°2024-12-27 07:07:48.097Z350.408° N
|